• In France
  • List of Countries
  • For 7 days
  • Water Temperature
  • Satellite Maps
  • Weather Map
  • Weather Widgets
  • user-avatar
    Login

    Hourly Weather Dangriga

    Today, 18 November, Saturday

    Time Temperature Precipitation Wind Pressure Humidity
    00:00 +21°C° 0 mm 2 mps 761 mmHg 88%
    01:00 +21°C° 0.1 mm 2 mps 760 mmHg 88%
    02:00 +20°C° 0.1 mm 3 mps 760 mmHg 89%
    03:00 +20°C° 0.1 mm 3 mps 760 mmHg 89%
    04:00 +20°C° 0.2 mm 3 mps 760 mmHg 90%
    05:00 +20°C° 0.2 mm 3 mps 760 mmHg 90%
    06:00 +20°C° 0 mm 2 mps 760 mmHg 91%
    07:00 +24°C° 0.2 mm 2 mps 760 mmHg 82%
    08:00 +26°C° 0.2 mm 2 mps 761 mmHg 73%
    09:00 +29°C° 0.2 mm 2 mps 761 mmHg 65%
    10:00 +30°C° 0.1 mm 2 mps 760 mmHg 61%
    11:00 +31°C° 0.1 mm 2 mps 760 mmHg 58%
    12:00 +32°C° 0.1 mm 2 mps 760 mmHg 54%
    13:00 +31°C° 0 mm 2 mps 759 mmHg 56%
    14:00 +31°C° 0 mm 2 mps 758 mmHg 58%
    15:00 +30°C° 0 mm 2 mps 758 mmHg 60%
    16:00 +29°C° 0 mm 2 mps 758 mmHg 69%
    17:00 +27°C° 0 mm 2 mps 758 mmHg 77%
    18:00 +25°C° 0 mm 2 mps 758 mmHg 85%
    19:00 +25°C° 0 mm 2 mps 759 mmHg 87%
    20:00 +24°C° 0 mm 2 mps 759 mmHg 90%
    21:00 +23°C° 0 mm 1 mps 760 mmHg 92%
    22:00 +23°C° 0 mm 1 mps 760 mmHg 93%
    23:00 +23°C° 0 mm 1 mps 759 mmHg 93%

    Tomorrow, 19 November, Sunday

    Time Temperature Precipitation Wind Pressure Humidity
    00:00 +23°C° 0 mm 1 mps 759 mmHg 93%
    01:00 +22°C° 0 mm 1 mps 759 mmHg 92%
    02:00 +21°C° 0 mm 2 mps 759 mmHg 90%
    03:00 +21°C° 0 mm 2 mps 759 mmHg 88%
    04:00 +21°C° 0.1 mm 2 mps 759 mmHg 87%
    05:00 +21°C° 0.1 mm 3 mps 759 mmHg 87%
    06:00 +21°C° 0.1 mm 3 mps 760 mmHg 86%
    07:00 +24°C° 0.6 mm 3 mps 760 mmHg 80%
    08:00 +26°C° 0.6 mm 3 mps 761 mmHg 75%
    09:00 +28°C° 0.6 mm 3 mps 761 mmHg 70%
    10:00 +28°C° 1.3 mm 3 mps 761 mmHg 75%
    11:00 +28°C° 1.3 mm 3 mps 761 mmHg 79%
    12:00 +29°C° 1.3 mm 3 mps 760 mmHg 83%
    13:00 +28°C° 1.4 mm 3 mps 760 mmHg 86%
    14:00 +28°C° 1.4 mm 3 mps 759 mmHg 89%
    15:00 +27°C° 1.4 mm 3 mps 759 mmHg 92%
    16:00 +26°C° 1.4 mm 3 mps 759 mmHg 93%
    17:00 +25°C° 1.4 mm 3 mps 759 mmHg 95%
    18:00 +24°C° 1.4 mm 3 mps 759 mmHg 96%
    19:00 +24°C° 1.1 mm 2 mps 760 mmHg 96%
    20:00 +24°C° 1.1 mm 2 mps 760 mmHg 95%
    21:00 +24°C° 1.1 mm 2 mps 761 mmHg 95%
    22:00 +24°C° 1 mm 2 mps 761 mmHg 95%
    23:00 +24°C° 1 mm 3 mps 761 mmHg 94%

    Day after tomorrow, 20 November, Monday

    Time Temperature Precipitation Wind Pressure Humidity
    00:00 +22°C° 1 mm 3 mps 761 mmHg 94%
    01:00 +22°C° 1.4 mm 3 mps 761 mmHg 94%
    02:00 +22°C° 1.4 mm 3 mps 761 mmHg 95%
    03:00 +22°C° 1.4 mm 4 mps 760 mmHg 95%
    04:00 +22°C° 1.3 mm 4 mps 761 mmHg 95%
    05:00 +22°C° 1.3 mm 4 mps 761 mmHg 94%
    06:00 +22°C° 1.3 mm 5 mps 761 mmHg 94%
    07:00 +22°C° 0.6 mm 5 mps 761 mmHg 91%
    08:00 +23°C° 0.6 mm 5 mps 762 mmHg 89%
    09:00 +23°C° 0.6 mm 5 mps 763 mmHg 86%
    10:00 +27°C° 0.1 mm 4 mps 762 mmHg 74%
    11:00 +29°C° 0.1 mm 4 mps 762 mmHg 63%
    12:00 +31°C° 0.1 mm 3 mps 761 mmHg 51%
    13:00 +31°C° 0 mm 3 mps 761 mmHg 53%
    14:00 +31°C° 0 mm 3 mps 760 mmHg 54%
    15:00 +30°C° 0 mm 2 mps 759 mmHg 56%
    16:00 +29°C° 0 mm 2 mps 759 mmHg 64%
    17:00 +27°C° 0 mm 2 mps 759 mmHg 72%
    18:00 +25°C° 0 mm 2 mps 760 mmHg 81%
    19:00 +24°C° 0 mm 2 mps 760 mmHg 84%
    20:00 +24°C° 0 mm 1 mps 760 mmHg 87%
    21:00 +23°C° 0 mm 1 mps 761 mmHg 90%
    22:00 +23°C° 0 mm 2 mps 761 mmHg 91%
    23:00 +23°C° 0 mm 2 mps 761 mmHg 93%

    21 November, Tuesday

    Time Temperature Precipitation Wind Pressure Humidity
    00:00 +21°C° 0 mm 2 mps 760 mmHg 94%
    01:00 +21°C° 0 mm 2 mps 760 mmHg 94%
    02:00 +21°C° 0 mm 3 mps 760 mmHg 93%
    03:00 +21°C° 0 mm 3 mps 759 mmHg 93%
    04:00 +20°C° 0 mm 3 mps 760 mmHg 92%
    05:00 +20°C° 0 mm 3 mps 760 mmHg 92%
    06:00 +20°C° 0 mm 3 mps 760 mmHg 91%
    07:00 +24°C° 0 mm 2 mps 760 mmHg 80%
    08:00 +27°C° 0 mm 2 mps 761 mmHg 68%
    09:00 +29°C° 0 mm 2 mps 761 mmHg 57%
    10:00 +31°C° 0 mm 2 mps 761 mmHg 54%
    11:00 +32°C° 0 mm 1 mps 760 mmHg 51%
    12:00 +33°C° 0 mm 1 mps 760 mmHg 48%
    13:00 +32°C° 0 mm 1 mps 759 mmHg 51%
    14:00 +32°C° 0 mm 2 mps 758 mmHg 54%
    15:00 +31°C° 0 mm 2 mps 758 mmHg 57%
    16:00 +29°C° 0 mm 2 mps 758 mmHg 67%
    17:00 +27°C° 0 mm 2 mps 758 mmHg 77%
    18:00 +25°C° 0 mm 2 mps 758 mmHg 87%
    19:00 +25°C° 0 mm 2 mps 759 mmHg 90%
    20:00 +25°C° 0 mm 2 mps 759 mmHg 92%
    21:00 +24°C° 0 mm 2 mps 760 mmHg 95%
    22:00 +24°C° 0.1 mm 1 mps 760 mmHg 95%
    23:00 +24°C° 0.1 mm 1 mps 760 mmHg 96%

    22 November, Wednesday

    Time Temperature Precipitation Wind Pressure Humidity
    00:00 +23°C° 0.1 mm 1 mps 759 mmHg 97%
    01:00 +23°C° 0.3 mm 1 mps 759 mmHg 97%
    02:00 +23°C° 0.3 mm 1 mps 759 mmHg 97%
    03:00 +23°C° 0.3 mm 1 mps 759 mmHg 97%
    04:00 +23°C° 0.4 mm 1 mps 759 mmHg 97%
    05:00 +23°C° 0.4 mm 2 mps 760 mmHg 96%
    06:00 +23°C° 0.4 mm 2 mps 760 mmHg 96%
    07:00 +24°C° 0.2 mm 2 mps 761 mmHg 89%
    08:00 +26°C° 0.2 mm 3 mps 761 mmHg 81%
    09:00 +28°C° 0.2 mm 3 mps 762 mmHg 74%
    10:00 +29°C° 0.5 mm 3 mps 761 mmHg 70%
    11:00 +31°C° 0.5 mm 3 mps 761 mmHg 67%
    12:00 +32°C° 0.5 mm 2 mps 760 mmHg 63%
    13:00 +32°C° 0.2 mm 2 mps 759 mmHg 62%
    14:00 +31°C° 0.2 mm 2 mps 759 mmHg 61%
    15:00 +31°C° 0.2 mm 1 mps 758 mmHg 59%
    16:00 +29°C° 0.7 mm 1 mps 759 mmHg 70%
    17:00 +27°C° 0.7 mm 1 mps 759 mmHg 80%
    18:00 +24°C° 0.7 mm 2 mps 760 mmHg 91%
    19:00 +24°C° 0.4 mm 2 mps 760 mmHg 92%
    20:00 +22°C° 0.4 mm 3 mps 761 mmHg 94%
    21:00 +22°C° 0.4 mm 3 mps 761 mmHg 95%
    22:00 +21°C° 0 mm 4 mps 761 mmHg 95%
    23:00 +21°C° 0 mm 4 mps 761 mmHg 95%

    23 November, Thursday

    Time Temperature Precipitation Wind Pressure Humidity
    00:00 +21°C° 0 mm 5 mps 761 mmHg 94%
    01:00 +21°C° 0 mm 5 mps 761 mmHg 94%
    02:00 +21°C° 0 mm 5 mps 761 mmHg 94%
    03:00 +21°C° 0 mm 6 mps 760 mmHg 93%
    04:00 +21°C° 0 mm 5 mps 761 mmHg 94%
    05:00 +20°C° 0 mm 5 mps 761 mmHg 94%
    06:00 +20°C° 0 mm 5 mps 761 mmHg 94%
    07:00 +22°C° 0 mm 5 mps 762 mmHg 87%
    08:00 +23°C° 0 mm 5 mps 762 mmHg 79%
    09:00 +26°C° 0 mm 5 mps 763 mmHg 72%
    10:00 +27°C° 0 mm 4 mps 762 mmHg 66%
    11:00 +28°C° 0 mm 4 mps 762 mmHg 61%
    12:00 +29°C° 0 mm 4 mps 761 mmHg 55%
    13:00 +30°C° 0 mm 3 mps 760 mmHg 54%
    14:00 +30°C° 0 mm 3 mps 760 mmHg 53%
    15:00 +30°C° 0 mm 3 mps 759 mmHg 51%
    16:00 +28°C° 0.1 mm 3 mps 760 mmHg 63%
    17:00 +26°C° 0.1 mm 3 mps 760 mmHg 74%
    18:00 +24°C° 0.1 mm 3 mps 760 mmHg 85%
    19:00 +22°C° 0.2 mm 3 mps 761 mmHg 88%
    20:00 +21°C° 0.2 mm 3 mps 761 mmHg 90%
    21:00 +21°C° 0.2 mm 4 mps 762 mmHg 92%
    22:00 +21°C° 0 mm 4 mps 762 mmHg 91%
    23:00 +21°C° 0 mm 5 mps 762 mmHg 89%
    Show more